EW9530 Weather Reports


Display with metric or nautical units.
time (UTC)temp
F
wind
direction
speed
MPH
gust
MPH
rain 1hr
in
rain 24hr
in
rain mn
in
humidity
%
barometer
mb
20260901054655 67 19 0.0 2.0 0.00 0.00 0.00 88 1021.1
20260901053143 67 19 0.0 1.0 0.00 0.00 0.00 89 1021.1
20260901051655 67 19 1.0 3.0 0.00 0.00 0.00 88 1021.1
20260901050156 68 19 0.0 2.0 0.00 0.00 0.00 88 1021.0
20260901044654 68 19 1.0 3.0 0.00 0.00 0.00 88 1021.0
20260901043144 68 113 0.0 2.0 0.00 0.00 0.00 88 1021.1
20260901041653 69 113 0.0 0.0 0.00 0.00 0.00 88 1021.0
20260901040150 69 113 0.0 2.0 0.00 0.00 0.00 88 1021.0
20260901034652 70 113 0.0 1.0 0.00 0.00 0.00 87 1021.1
20260901033145 70 113 0.0 0.0 0.00 0.00 0.00 86 1021.2
20260901031652 71 113 0.0 0.0 0.00 0.00 0.00 86 1021.1
20260901030151 72 113 0.0 0.0 0.00 0.00 0.00 85 1021.2
20260901024654 72 113 0.0 0.0 0.00 0.00 0.00 85 1021.3
20260901023144 73 113 0.0 0.0 0.00 0.00 0.00 85 1021.4
20260901021653 73 113 0.0 0.0 0.00 0.00 0.00 84 1021.6
20260901014651 74 113 0.0 3.0 0.00 0.00 0.00 83 1021.9
20260901013143 74 120 0.0 4.0 0.00 0.00 0.00 82 1021.8
20260901011654 75 120 0.0 1.0 0.00 0.00 0.00 82 1021.8
20260901010150 75 159 0.0 1.0 0.00 0.00 0.00 82 1021.9
20260901004652 75 159 1.0 4.0 0.00 0.00 0.00 81 1022.0
20260901003141 75 155 2.0 6.0 0.00 0.00 0.00 81 1022.0
20260901001650 75 145 1.0 6.0 0.00 0.00 0.00 81 1021.9
20260901000157 75 150 1.0 6.0 0.00 0.00 0.00 81 1022.0
20260831234651 75 155 0.0 1.0 0.00 0.00 0.00 82 1022.0
20260831233143 75 155 1.0 3.0 0.00 0.00 0.00 82 1022.0
20260831231651 75 111 0.0 3.0 0.00 0.00 0.00 82 1022.0
20260831230150 75 103 0.0 3.0 0.00 0.00 0.00 82 1021.8
20260831224651 75 146 1.0 3.0 0.00 0.00 0.00 80 1021.7
20260831223142 76 130 0.0 4.0 0.00 0.00 0.00 79 1021.7
20260831221655 76 192 1.0 5.0 0.00 0.00 0.00 78 1021.5
20260831220154 76 142 2.0 5.0 0.00 0.00 0.00 77 1021.7
20260831214652 76 162 2.0 5.0 0.00 0.00 0.00 77 1021.6
20260831213142 76 168 3.0 7.0 0.00 0.00 0.00 76 1021.6
20260831211651 77 161 4.0 9.0 0.00 0.00 0.00 76 1021.4
20260831210152 77 201 2.0 8.0 0.00 0.00 0.00 75 1021.4
20260831204652 77 136 2.0 10.0 0.00 0.00 0.00 74 1021.2
20260831203141 77 95 1.0 8.0 0.00 0.00 0.00 74 1021.2
20260831201652 77 148 2.0 11.0 0.00 0.00 0.00 74 1021.0
20260831200152 77 47 2.0 10.0 0.00 0.00 0.00 74 1020.8
20260831194652 78 121 0.0 10.0 0.00 0.00 0.00 73 1020.5
20260831193144 78 142 0.0 5.0 0.00 0.00 0.00 72 1020.1
20260831191654 78 112 1.0 8.0 0.00 0.00 0.00 71 1019.8
20260831190153 78 65 0.0 7.0 0.00 0.00 0.00 70 1019.6
20260831184654 79 67 2.0 7.0 0.00 0.00 0.00 69 1019.4
20260831183140 79 80 0.0 8.0 0.00 0.00 0.00 68 1019.3
20260831181651 80 108 3.0 12.0 0.00 0.00 0.00 68 1019.1
20260831180159 81 101 5.0 11.0 0.00 0.00 0.00 69 1019.0
20260831174655 81 84 7.0 15.0 0.00 0.00 0.00 69 1018.9
20260831173145 82 111 5.0 14.0 0.00 0.00 0.00 68 1018.8
20260831171652 83 154 4.0 14.0 0.00 0.00 0.00 66 1018.8
20260831170152 83 127 7.0 16.0 0.00 0.00 0.00 64 1018.8
20260831164652 84 121 4.0 18.0 0.00 0.00 0.00 64 1018.8
20260831163144 85 151 8.0 17.0 0.00 0.00 0.00 62 1018.7
20260831161651 85 137 8.0 19.0 0.00 0.00 0.00 62 1018.7
20260831154653 86 159 9.0 16.0 0.00 0.00 0.00 61 1018.9
20260831153143 86 105 7.0 16.0 0.00 0.00 0.00 60 1018.9
20260831151654 87 117 5.0 14.0 0.00 0.00 0.00 59 1018.8
20260831150156 87 123 6.0 17.0 0.00 0.00 0.00 59 1018.7
20260831144657 87 154 6.0 17.0 0.00 0.00 0.00 58 1018.7
20260831143142 87 111 11.0 20.0 0.00 0.00 0.00 58 1018.8
20260831141652 88 175 9.0 16.0 0.00 0.00 0.00 57 1018.8
20260831140154 88 169 9.0 18.0 0.00 0.00 0.00 57 1018.9
20260831134651 88 127 8.0 17.0 0.00 0.00 0.00 55 1018.9
20260831133141 89 113 5.0 16.0 0.00 0.00 0.00 54 1018.8
20260831131650 89 118 9.0 13.0 0.00 0.00 0.00 53 1018.9
20260831130154 89 164 10.0 14.0 0.00 0.00 0.00 51 1018.9
20260831124651 89 115 6.0 13.0 0.00 0.00 0.00 50 1019.0
20260831123140 89 138 6.0 11.0 0.00 0.00 0.00 50 1019.2
20260831121652 88 76 6.0 12.0 0.00 0.00 0.00 51 1019.2
20260831114651 88 138 4.0 12.0 0.00 0.00 0.00 47 1019.8
20260831113140 87 142 4.0 9.0 0.00 0.00 0.00 46 1019.9
20260831111652 86 117 3.0 9.0 0.00 0.00 0.00 45 1019.9
20260831110159 86 190 3.0 12.0 0.00 0.00 0.00 49 1020.1
20260831104652 84 27 4.0 8.0 0.00 0.00 0.00 51 1020.2
20260831103143 83 292 0.0 5.0 0.00 0.00 0.00 50 1020.4
20260831101652 83 180 1.0 5.0 0.00 0.00 0.00 52 1020.4
20260831100149 81 166 1.0 4.0 0.00 0.00 0.00 52 1020.6
20260831094653 80 204 1.0 3.0 0.00 0.00 0.00 53 1020.7
20260831093138 79 267 1.0 4.0 0.00 0.00 0.00 56 1020.9
20260831091651 78 184 0.0 3.0 0.00 0.00 0.00 56 1020.9
20260831090151 75 210 1.0 2.0 0.00 0.00 0.00 56 1020.9
20260831084651 73 73 0.0 0.0 0.00 0.00 0.00 55 1021.0
20260831083144 71 73 0.0 0.0 0.00 0.00 0.00 58 1020.9
20260831081655 70 73 0.0 0.0 0.00 0.00 0.00 61 1021.0
20260831080152 68 72 0.0 0.0 0.00 0.00 0.00 63 1020.9
20260831074653 67 72 0.0 1.0 0.00 0.00 0.00 65 1020.8
20260831073211 66 63 1.0 3.0 0.00 0.00 0.00 67 1020.9
20260831071655 65 77 0.0 3.0 0.00 0.00 0.00 69 1020.8
20260831070154 64 77 1.0 5.0 0.00 0.00 0.00 70 1020.8
20260831064654 63 64 0.0 0.0 0.00 0.00 0.00 71 1020.7
20260831063141 62 64 0.0 0.0 0.00 0.00 0.00 74 1020.6
20260831061657 60 64 0.0 1.0 0.00 0.00 0.00 77 1020.4
20260831060153 58 28 0.0 0.0 0.00 0.00 0.00 80 1020.1